User: anonymous   Login
Location: STAR School
(35.3054°N, 111.2976°W)
Time: 18:08:13
(UTC-07:00)
Language:

Courier 1B - Orbit

View from above orbital plane
View from above orbital plane
View from above satellite
View from above satellite

Ground track
Ground track

The orbit data is extracted from the following two-line orbital elements,

1    58U 60013A   19142.84023244  .00000099  00000-0  24788-4 0  9998
2    58  28.3274 281.3797 0164985  67.0379 294.7483 13.46317395886330
Epoch (UTC): 22 May 2019 20:09:56
Eccentricity: 0.0164985
inclination: 28.3274°
perigee height: 962 km
apogee height: 1209 km
right ascension of ascending node: 281.3797°
argument of perigee: 67.0379°
revolutions per day: 13.46317395
mean anomaly at epoch: 294.7483°
orbit number at epoch: 88633

The dashed part of the orbit path shows where the satellite is in the earth's shadow,  

DLR